Time,TemperatureF,DewpointF,PressureIn,WindDirection,WindDirectionDegrees,WindSpeedMPH,WindSpeedGustMPH,Humidity,HourlyPrecipIn,Conditions,Clouds,dailyrainin,SoftwareType,DateUTC
2013-05-24 00:03:00,55.6,46.7,30.24,East,90,0.0,0.0,72,0.00,,,0.00,VWS V14.01,2013-05-24 05:03:00,
2013-05-24 00:08:00,55.6,47.1,30.24,East,90,0.0,0.0,73,0.00,,,0.00,VWS V14.01,2013-05-24 05:08:00,
2013-05-24 00:13:00,55.6,47.1,30.24,East,90,0.0,0.0,73,0.00,,,0.00,VWS V14.01,2013-05-24 05:13:00,
2013-05-24 00:18:00,55.4,46.5,30.24,East,90,0.0,0.0,72,0.00,,,0.00,VWS V14.01,2013-05-24 05:18:00,
2013-05-24 00:23:00,55.4,46.5,30.24,East,90,0.0,0.0,72,0.00,,,0.00,VWS V14.01,2013-05-24 05:23:00,
2013-05-24 00:28:00,55.2,46.7,30.24,East,90,0.0,0.0,73,0.00,,,0.00,VWS V14.01,2013-05-24 05:28:00,
2013-05-24 00:33:00,55.0,46.5,30.24,East,90,0.0,0.0,73,0.00,,,0.00,VWS V14.01,2013-05-24 05:33:00,
2013-05-24 00:38:00,55.0,46.5,30.24,East,90,0.0,0.0,73,0.00,,,0.00,VWS V14.01,2013-05-24 05:38:00,
2013-05-24 00:43:00,54.9,46.4,30.24,East,90,0.0,0.0,73,0.00,,,0.00,VWS V14.01,2013-05-24 05:43:00,
2013-05-24 00:48:00,54.7,46.2,30.24,East,90,0.0,0.0,73,0.00,,,0.00,VWS V14.01,2013-05-24 05:48:00,
2013-05-24 00:53:00,54.7,46.6,30.24,East,90,0.0,0.0,74,0.00,,,0.00,VWS V14.01,2013-05-24 05:53:00,
2013-05-24 00:58:00,54.7,46.6,30.24,East,90,0.0,0.0,74,0.00,,,0.00,VWS V14.01,2013-05-24 05:58:00,
2013-05-24 01:03:00,54.5,46.4,30.24,ESE,112,0.0,0.0,74,0.00,,,0.00,VWS V14.01,2013-05-24 06:03:00,
2013-05-24 01:08:00,54.5,46.4,30.24,East,90,0.0,0.0,74,0.00,,,0.00,VWS V14.01,2013-05-24 06:08:00,
2013-05-24 01:13:00,54.5,46.8,30.24,ENE,68,0.0,0.0,75,0.00,,,0.00,VWS V14.01,2013-05-24 06:13:00,
2013-05-24 01:18:00,54.5,46.8,30.24,ENE,68,0.0,0.0,75,0.00,,,0.00,VWS V14.01,2013-05-24 06:18:00,
2013-05-24 01:23:00,54.3,46.6,30.24,NE,45,0.0,0.0,75,0.00,,,0.00,VWS V14.01,2013-05-24 06:23:00,
2013-05-24 01:28:00,54.1,46.4,30.24,ESE,112,0.0,0.0,75,0.00,,,0.00,VWS V14.01,2013-05-24 06:28:00,
2013-05-24 01:33:00,54.0,46.2,30.24,ENE,68,0.0,0.0,75,0.00,,,0.00,VWS V14.01,2013-05-24 06:33:00,
2013-05-24 01:38:00,53.8,46.0,30.24,East,90,0.0,0.0,75,0.00,,,0.00,VWS V14.01,2013-05-24 06:38:00,
2013-05-24 01:43:00,53.8,46.0,30.24,ESE,112,0.0,0.0,75,0.00,,,0.00,VWS V14.01,2013-05-24 06:43:00,
2013-05-24 01:48:00,53.8,46.0,30.24,ESE,112,0.0,0.0,75,0.00,,,0.00,VWS V14.01,2013-05-24 06:48:00,
2013-05-24 01:53:00,53.8,46.0,30.24,ESE,112,0.0,0.0,75,0.00,,,0.00,VWS V14.01,2013-05-24 06:53:00,
2013-05-24 01:58:00,53.6,45.9,30.24,East,90,0.0,0.0,75,0.00,,,0.00,VWS V14.01,2013-05-24 06:58:00,
2013-05-24 02:03:00,53.4,46.1,30.24,ENE,68,0.0,0.0,76,0.00,,,0.00,VWS V14.01,2013-05-24 07:03:00,
2013-05-24 02:08:00,53.4,46.1,30.24,East,90,0.0,0.0,76,0.00,,,0.00,VWS V14.01,2013-05-24 07:08:00,
2013-05-24 02:13:00,53.2,46.2,30.24,ESE,112,0.0,0.0,77,0.00,,,0.00,VWS V14.01,2013-05-24 07:13:00,
2013-05-24 02:18:00,53.1,46.4,30.24,ESE,112,0.0,0.0,78,0.00,,,0.00,VWS V14.01,2013-05-24 07:18:00,
2013-05-24 02:23:00,53.1,47.1,30.24,East,90,0.0,0.0,80,0.00,,,0.00,VWS V14.01,2013-05-24 07:23:00,
2013-05-24 02:28:00,52.9,47.2,30.24,NE,45,0.0,0.0,81,0.00,,,0.00,VWS V14.01,2013-05-24 07:28:00,
2013-05-24 02:33:00,52.7,47.0,30.24,ENE,68,0.0,0.0,81,0.00,,,0.00,VWS V14.01,2013-05-24 07:33:00,
2013-05-24 02:38:00,52.5,47.2,30.27,ENE,68,0.0,0.0,82,0.00,,,0.00,VWS V14.01,2013-05-24 07:38:00,
2013-05-24 02:43:00,52.3,47.0,30.27,ESE,112,0.0,0.0,82,0.00,,,0.00,VWS V14.01,2013-05-24 07:43:00,
2013-05-24 02:48:00,52.3,47.0,30.27,ESE,112,0.0,0.0,82,0.00,,,0.00,VWS V14.01,2013-05-24 07:48:00,
2013-05-24 02:53:00,52.2,46.8,30.27,ESE,112,0.0,0.0,82,0.00,,,0.00,VWS V14.01,2013-05-24 07:53:00,
2013-05-24 02:58:00,52.0,46.7,30.27,ESE,112,0.0,0.0,82,0.00,,,0.00,VWS V14.01,2013-05-24 07:58:00,
2013-05-24 03:03:00,52.0,46.7,30.27,ENE,68,0.0,0.0,82,0.00,,,0.00,VWS V14.01,2013-05-24 08:03:00,
2013-05-24 03:08:00,51.8,46.5,30.27,East,90,0.0,0.0,82,0.00,,,0.00,VWS V14.01,2013-05-24 08:08:00,
2013-05-24 03:13:00,51.8,46.5,30.27,East,90,0.0,0.0,82,0.00,,,0.00,VWS V14.01,2013-05-24 08:13:00,
2013-05-24 03:18:00,51.6,46.3,30.27,East,90,0.0,0.0,82,0.00,,,0.00,VWS V14.01,2013-05-24 08:18:00,
2013-05-24 03:23:00,51.4,46.1,30.27,East,90,0.0,0.0,82,0.00,,,0.00,VWS V14.01,2013-05-24 08:23:00,
2013-05-24 03:28:00,51.4,46.1,30.27,East,90,0.0,0.0,82,0.00,,,0.00,VWS V14.01,2013-05-24 08:28:00,
2013-05-24 03:33:00,51.3,46.0,30.27,East,90,0.0,0.0,82,0.00,,,0.00,VWS V14.01,2013-05-24 08:33:00,
2013-05-24 03:38:00,51.1,45.8,30.27,East,90,0.0,0.0,82,0.00,,,0.00,VWS V14.01,2013-05-24 08:38:00,
2013-05-24 03:43:00,50.9,45.6,30.27,East,90,0.0,0.0,82,0.00,,,0.00,VWS V14.01,2013-05-24 08:43:00,
2013-05-24 03:48:00,50.7,45.4,30.27,East,90,0.0,0.0,82,0.00,,,0.00,VWS V14.01,2013-05-24 08:48:00,
2013-05-24 03:53:00,50.7,45.4,30.27,East,90,0.0,0.0,82,0.00,,,0.00,VWS V14.01,2013-05-24 08:53:00,
2013-05-24 03:58:00,50.5,45.3,30.27,East,90,0.0,0.0,82,0.00,,,0.00,VWS V14.01,2013-05-24 08:58:00,
2013-05-24 04:03:00,50.4,45.4,30.27,East,90,0.0,0.0,83,0.00,,,0.00,VWS V14.01,2013-05-24 09:03:00,
2013-05-24 04:08:00,50.2,45.2,30.30,East,90,0.0,0.0,83,0.00,,,0.00,VWS V14.01,2013-05-24 09:08:00,
2013-05-24 04:13:00,50.0,45.0,30.30,East,90,0.0,0.0,83,0.00,,,0.00,VWS V14.01,2013-05-24 09:13:00,
2013-05-24 04:18:00,50.0,45.0,30.30,East,90,0.0,0.0,83,0.00,,,0.00,VWS V14.01,2013-05-24 09:18:00,
2013-05-24 04:23:00,49.8,44.9,30.30,East,90,0.0,0.0,83,0.00,,,0.00,VWS V14.01,2013-05-24 09:23:00,
2013-05-24 04:28:00,49.6,44.7,30.30,East,90,0.0,0.0,83,0.00,,,0.00,VWS V14.01,2013-05-24 09:28:00,
2013-05-24 04:33:00,49.5,44.8,30.30,East,90,0.0,0.0,84,0.00,,,0.00,VWS V14.01,2013-05-24 09:33:00,
2013-05-24 04:38:00,49.5,44.8,30.30,East,90,0.0,0.0,84,0.00,,,0.00,VWS V14.01,2013-05-24 09:38:00,
2013-05-24 04:43:00,49.3,44.7,30.30,East,90,0.0,0.0,84,0.00,,,0.00,VWS V14.01,2013-05-24 09:43:00,
2013-05-24 04:48:00,49.3,45.0,30.30,East,90,0.0,0.0,85,0.00,,,0.00,VWS V14.01,2013-05-24 09:48:00,
2013-05-24 04:53:00,49.3,45.0,30.30,East,90,0.0,0.0,85,0.00,,,0.00,VWS V14.01,2013-05-24 09:53:00,
2013-05-24 04:58:00,49.3,45.0,30.30,East,90,0.0,0.0,85,0.00,,,0.00,VWS V14.01,2013-05-24 09:58:00,
2013-05-24 05:03:00,49.1,44.8,30.30,East,90,0.0,0.0,85,0.00,,,0.00,VWS V14.01,2013-05-24 10:03:00,
2013-05-24 05:08:00,49.1,44.8,30.33,East,90,0.0,0.0,85,0.00,,,0.00,VWS V14.01,2013-05-24 10:08:00,
2013-05-24 05:13:00,49.1,45.1,30.33,East,90,0.0,0.0,86,0.00,,,0.00,VWS V14.01,2013-05-24 10:13:00,
2013-05-24 05:18:00,49.1,45.1,30.33,East,90,0.0,0.0,86,0.00,,,0.00,VWS V14.01,2013-05-24 10:18:00,
2013-05-24 05:23:00,49.3,45.3,30.33,East,90,0.0,0.0,86,0.00,,,0.00,VWS V14.01,2013-05-24 10:23:00,
2013-05-24 05:28:00,49.3,45.3,30.33,East,90,0.0,0.0,86,0.00,,,0.00,VWS V14.01,2013-05-24 10:28:00,
2013-05-24 05:33:00,49.1,45.1,30.33,East,90,0.0,0.0,86,0.00,,,0.00,VWS V14.01,2013-05-24 10:33:00,
2013-05-24 05:38:00,49.1,45.1,30.33,East,90,0.0,0.0,86,0.00,,,0.00,VWS V14.01,2013-05-24 10:38:00,
2013-05-24 05:43:00,49.1,45.1,30.33,East,90,0.0,0.0,86,0.00,,,0.00,VWS V14.01,2013-05-24 10:43:00,
2013-05-24 05:48:00,48.9,44.9,30.33,East,90,0.0,0.0,86,0.00,,,0.00,VWS V14.01,2013-05-24 10:48:00,
2013-05-24 05:53:00,48.9,44.9,30.33,East,90,0.0,0.0,86,0.00,,,0.00,VWS V14.01,2013-05-24 10:53:00,
2013-05-24 05:58:00,48.9,45.2,30.33,East,90,0.0,0.0,87,0.00,,,0.00,VWS V14.01,2013-05-24 10:58:00,
2013-05-24 06:03:00,48.9,45.2,30.33,East,90,0.0,0.0,87,0.00,,,0.00,VWS V14.01,2013-05-24 11:03:00,
2013-05-24 06:08:00,48.9,45.2,30.33,East,90,0.0,0.0,87,0.00,,,0.00,VWS V14.01,2013-05-24 11:08:00,
2013-05-24 06:13:00,48.9,45.2,30.33,East,90,0.0,0.0,87,0.00,,,0.00,VWS V14.01,2013-05-24 11:13:00,
2013-05-24 06:18:00,49.1,45.7,30.33,East,90,0.0,0.0,88,0.00,,,0.00,VWS V14.01,2013-05-24 11:18:00,
2013-05-24 06:23:00,49.3,45.9,30.36,East,90,0.0,0.0,88,0.00,,,0.00,VWS V14.01,2013-05-24 11:23:00,
2013-05-24 06:28:00,49.6,46.2,30.36,East,90,0.0,0.0,88,0.00,,,0.00,VWS V14.01,2013-05-24 11:28:00,
2013-05-24 06:33:00,49.8,46.4,30.36,East,90,0.0,0.0,88,0.00,,,0.00,VWS V14.01,2013-05-24 11:33:00,
2013-05-24 06:38:00,50.0,46.6,30.36,East,90,0.0,0.0,88,0.00,,,0.00,VWS V14.01,2013-05-24 11:38:00,
2013-05-24 06:43:00,50.2,46.8,30.36,East,90,0.0,0.0,88,0.00,,,0.00,VWS V14.01,2013-05-24 11:43:00,
2013-05-24 06:48:00,50.5,47.1,30.36,East,90,0.0,0.0,88,0.00,,,0.00,VWS V14.01,2013-05-24 11:48:00,
2013-05-24 06:53:00,50.9,46.9,30.36,East,90,0.0,0.0,86,0.00,,,0.00,VWS V14.01,2013-05-24 11:53:00,
2013-05-24 06:58:00,51.3,46.9,30.36,East,90,0.0,0.0,85,0.00,,,0.00,VWS V14.01,2013-05-24 11:58:00,
2013-05-24 07:02:00,52.0,47.3,30.36,SSW,202,5.8,5.8,84,0.00,,,0.00,VWS V14.01,2013-05-24 12:02:00,
2013-05-24 07:07:00,52.7,47.0,30.36,ESE,112,0.0,0.0,81,0.00,,,0.00,VWS V14.01,2013-05-24 12:07:00,
2013-05-24 07:12:00,53.8,47.1,30.36,ESE,112,0.0,0.0,78,0.00,,,0.00,VWS V14.01,2013-05-24 12:12:00,
2013-05-24 07:17:00,54.5,46.4,30.36,ESE,112,0.0,0.0,74,0.00,,,0.00,VWS V14.01,2013-05-24 12:17:00,
2013-05-24 07:22:00,54.9,45.7,30.39,East,90,0.0,0.0,71,0.00,,,0.00,VWS V14.01,2013-05-24 12:22:00,
2013-05-24 07:27:00,55.6,43.2,30.39,East,90,0.0,0.0,63,0.00,,,0.00,VWS V14.01,2013-05-24 12:27:00,
2013-05-24 07:32:00,55.4,42.2,30.39,ENE,68,0.0,0.0,61,0.00,,,0.00,VWS V14.01,2013-05-24 12:32:00,
2013-05-24 07:37:00,56.1,42.0,30.39,NE,45,0.0,0.0,59,0.00,,,0.00,VWS V14.01,2013-05-24 12:37:00,
2013-05-24 07:42:00,55.6,41.0,30.39,ESE,112,0.0,0.0,58,0.00,,,0.00,VWS V14.01,2013-05-24 12:42:00,
2013-05-24 07:47:00,55.9,41.4,30.39,ESE,112,0.0,0.0,58,0.00,,,0.00,VWS V14.01,2013-05-24 12:47:00,
2013-05-24 07:52:00,55.4,40.4,30.39,East,90,3.6,3.6,57,0.00,,,0.00,VWS V14.01,2013-05-24 12:52:00,
2013-05-24 07:57:00,55.6,41.0,30.39,ESE,112,0.0,0.0,58,0.00,,,0.00,VWS V14.01,2013-05-24 12:57:00,
2013-05-24 08:02:00,55.8,38.9,30.39,ESE,112,0.0,5.8,53,0.00,,,0.00,VWS V14.01,2013-05-24 13:02:00,
2013-05-24 08:07:00,55.9,39.1,30.39,SSW,202,4.9,4.9,53,0.00,,,0.00,VWS V14.01,2013-05-24 13:07:00,
2013-05-24 08:12:00,55.8,38.4,30.39,East,90,0.0,4.0,52,0.00,,,0.00,VWS V14.01,2013-05-24 13:12:00,
2013-05-24 08:17:00,55.9,37.6,30.39,ENE,68,0.0,0.0,50,0.00,,,0.00,VWS V14.01,2013-05-24 13:17:00,
2013-05-24 08:22:00,56.7,38.2,30.39,ESE,112,0.0,0.0,50,0.00,,,0.00,VWS V14.01,2013-05-24 13:22:00,
2013-05-24 08:27:00,57.4,38.4,30.39,ESE,112,0.0,0.0,49,0.00,,,0.00,VWS V14.01,2013-05-24 13:27:00,
2013-05-24 08:32:00,57.0,37.5,30.39,ESE,112,0.0,0.0,48,0.00,,,0.00,VWS V14.01,2013-05-24 13:32:00,
2013-05-24 08:37:00,57.6,37.5,30.39,ESE,112,2.2,5.4,47,0.00,,,0.00,VWS V14.01,2013-05-24 13:37:00,
2013-05-24 08:42:00,57.6,38.0,30.39,SSE,158,0.0,0.0,48,0.00,,,0.00,VWS V14.01,2013-05-24 13:42:00,
2013-05-24 08:47:00,58.1,37.5,30.39,ESE,112,0.0,0.0,46,0.00,,,0.00,VWS V14.01,2013-05-24 13:47:00,
2013-05-24 08:52:00,58.1,38.0,30.39,ESE,112,2.7,2.7,47,0.00,,,0.00,VWS V14.01,2013-05-24 13:52:00,
2013-05-24 08:57:00,59.0,37.7,30.39,ESE,112,0.0,0.0,45,0.00,,,0.00,VWS V14.01,2013-05-24 13:57:00,
2013-05-24 09:02:00,59.4,38.6,30.39,SSE,158,0.0,0.0,46,0.00,,,0.00,VWS V14.01,2013-05-24 14:02:00,
2013-05-24 09:07:00,59.4,37.5,30.39,ENE,68,0.0,0.0,44,0.00,,,0.00,VWS V14.01,2013-05-24 14:07:00,
2013-05-24 09:12:00,58.5,37.2,30.39,NNE,22,0.0,0.0,45,0.00,,,0.00,VWS V14.01,2013-05-24 14:12:00,
2013-05-24 09:17:00,59.4,37.5,30.39,NE,45,0.0,0.0,44,0.00,,,0.00,VWS V14.01,2013-05-24 14:17:00,
2013-05-24 09:22:00,59.4,36.9,30.41,SSE,158,0.0,0.0,43,0.00,,,0.00,VWS V14.01,2013-05-24 14:22:00,
2013-05-24 09:27:00,59.5,37.6,30.41,ENE,68,0.0,0.0,44,0.00,,,0.00,VWS V14.01,2013-05-24 14:27:00,
2013-05-24 09:32:00,60.4,37.3,30.41,ESE,112,0.0,0.0,42,0.00,,,0.00,VWS V14.01,2013-05-24 14:32:00,
2013-05-24 09:37:00,61.0,37.8,30.41,ESE,112,0.0,0.0,42,0.00,,,0.00,VWS V14.01,2013-05-24 14:37:00,
2013-05-24 09:42:00,61.9,38.6,30.41,ESE,112,0.0,0.0,42,0.00,,,0.00,VWS V14.01,2013-05-24 14:42:00,
2013-05-24 09:47:00,61.2,36.0,30.41,SSW,202,0.0,0.0,39,0.00,,,0.00,VWS V14.01,2013-05-24 14:47:00,
2013-05-24 09:52:00,61.0,37.1,30.39,SSW,202,0.0,0.0,41,0.00,,,0.00,VWS V14.01,2013-05-24 14:52:00,
2013-05-24 09:57:00,61.5,37.0,30.39,ESE,112,0.0,0.0,40,0.00,,,0.00,VWS V14.01,2013-05-24 14:57:00,
2013-05-24 10:02:00,61.3,36.2,30.39,South,180,0.0,0.0,39,0.00,,,0.00,VWS V14.01,2013-05-24 15:02:00,
2013-05-24 10:07:00,60.8,35.1,30.39,SSW,202,0.0,0.0,38,0.00,,,0.00,VWS V14.01,2013-05-24 15:07:00,
2013-05-24 10:12:00,60.6,35.5,30.39,East,90,0.0,0.0,39,0.00,,,0.00,VWS V14.01,2013-05-24 15:12:00,
2013-05-24 10:17:00,60.4,35.4,30.39,ESE,112,0.0,0.0,39,0.00,,,0.00,VWS V14.01,2013-05-24 15:17:00,
2013-05-24 10:22:00,60.6,36.2,30.39,NNE,22,0.0,0.0,40,0.00,,,0.00,VWS V14.01,2013-05-24 15:22:00,
2013-05-24 10:27:00,60.3,35.9,30.39,SSW,202,5.4,6.3,40,0.00,,,0.00,VWS V14.01,2013-05-24 15:27:00,
2013-05-24 10:32:00,59.7,34.7,30.39,SSW,202,3.6,3.6,39,0.00,,,0.00,VWS V14.01,2013-05-24 15:32:00,
2013-05-24 10:37:00,59.9,34.9,30.39,South,180,2.2,4.9,39,0.00,,,0.00,VWS V14.01,2013-05-24 15:37:00,
2013-05-24 10:42:00,60.1,34.4,30.39,SSE,158,0.0,0.0,38,0.00,,,0.00,VWS V14.01,2013-05-24 15:42:00,
2013-05-24 10:47:00,60.3,35.2,30.39,SE,135,0.0,0.0,39,0.00,,,0.00,VWS V14.01,2013-05-24 15:47:00,
2013-05-24 10:52:00,60.3,34.6,30.39,South,180,0.0,0.0,38,0.00,,,0.00,VWS V14.01,2013-05-24 15:52:00,
2013-05-24 10:57:00,60.3,34.6,30.39,ESE,112,0.0,0.0,38,0.00,,,0.00,VWS V14.01,2013-05-24 15:57:00,
2013-05-24 11:02:00,60.4,34.7,30.39,ESE,112,0.0,0.0,38,0.00,,,0.00,VWS V14.01,2013-05-24 16:02:00,
2013-05-24 11:07:00,60.8,35.1,30.39,East,90,0.0,0.0,38,0.00,,,0.00,VWS V14.01,2013-05-24 16:07:00,
2013-05-24 11:12:00,61.3,35.5,30.39,NE,45,0.0,0.0,38,0.00,,,0.00,VWS V14.01,2013-05-24 16:12:00,
2013-05-24 11:17:00,61.3,35.5,30.39,East,90,3.6,3.6,38,0.00,,,0.00,VWS V14.01,2013-05-24 16:17:00,
2013-05-24 11:22:00,61.3,34.2,30.41,NE,45,0.0,0.0,36,0.00,,,0.00,VWS V14.01,2013-05-24 16:22:00,
2013-05-24 11:27:00,61.7,35.9,30.41,East,90,0.0,0.0,38,0.00,,,0.00,VWS V14.01,2013-05-24 16:27:00,
2013-05-24 11:32:00,61.3,34.2,30.41,NE,45,0.0,0.0,36,0.00,,,0.00,VWS V14.01,2013-05-24 16:32:00,
2013-05-24 11:37:00,61.3,34.2,30.39,ENE,68,0.0,0.0,36,0.00,,,0.00,VWS V14.01,2013-05-24 16:37:00,
2013-05-24 11:42:00,61.5,35.7,30.39,SSW,202,0.0,0.0,38,0.00,,,0.00,VWS V14.01,2013-05-24 16:42:00,
2013-05-24 11:47:00,61.7,35.2,30.39,SSE,158,0.0,0.0,37,0.00,,,0.00,VWS V14.01,2013-05-24 16:47:00,
2013-05-24 11:52:00,61.7,35.2,30.39,SSE,158,0.0,0.0,37,0.00,,,0.00,VWS V14.01,2013-05-24 16:52:00,
2013-05-24 11:57:00,61.7,34.5,30.39,East,90,0.0,0.0,36,0.00,,,0.00,VWS V14.01,2013-05-24 16:57:00,
2013-05-24 12:01:00,61.9,34.7,30.39,East,90,0.0,0.0,36,0.00,,,0.00,VWS V14.01,2013-05-24 17:01:00,
2013-05-24 13:01:00,61.9,34.7,30.39,East,90,0.0,0.0,36,0.00,,,0.00,VWS V14.01,2013-05-24 18:01:00,
2013-05-24 13:06:00,63.9,33.5,30.39,SE,135,0.0,0.0,32,0.00,,,0.00,VWS V14.01,2013-05-24 18:06:00,
2013-05-24 13:11:00,63.7,34.8,30.39,SSW,202,2.7,2.7,34,0.00,,,0.00,VWS V14.01,2013-05-24 18:11:00,
2013-05-24 13:16:00,64.2,35.3,30.39,South,180,0.0,0.0,34,0.00,,,0.00,VWS V14.01,2013-05-24 18:16:00,
2013-05-24 13:21:00,64.4,33.9,30.39,South,180,0.0,0.0,32,0.00,,,0.00,VWS V14.01,2013-05-24 18:21:00,
2013-05-24 13:26:00,64.0,32.8,30.39,South,180,4.5,6.7,31,0.00,,,0.00,VWS V14.01,2013-05-24 18:26:00,
2013-05-24 13:31:00,64.2,33.8,30.39,SSE,158,0.0,0.0,32,0.00,,,0.00,VWS V14.01,2013-05-24 18:31:00,
2013-05-24 13:36:00,64.8,31.8,30.36,SSE,158,0.0,0.0,29,0.00,,,0.00,VWS V14.01,2013-05-24 18:36:00,
2013-05-24 13:41:00,65.1,30.3,30.36,NE,45,0.0,0.0,27,0.00,,,0.00,VWS V14.01,2013-05-24 18:41:00,
2013-05-24 13:46:00,65.1,28.5,30.36,East,90,0.0,0.0,25,0.00,,,0.00,VWS V14.01,2013-05-24 18:46:00,
2013-05-24 13:51:00,65.1,28.5,30.36,ESE,112,0.0,0.0,25,0.00,,,0.00,VWS V14.01,2013-05-24 18:51:00,
2013-05-24 13:56:00,64.9,27.3,30.36,ENE,68,0.0,0.0,24,0.00,,,0.00,VWS V14.01,2013-05-24 18:56:00,
2013-05-24 14:01:00,64.8,27.2,30.36,East,90,0.0,0.0,24,0.00,,,0.00,VWS V14.01,2013-05-24 19:01:00,
2013-05-24 14:06:00,64.9,26.3,30.36,South,180,6.3,6.3,23,0.00,,,0.00,VWS V14.01,2013-05-24 19:06:00,
2013-05-24 14:11:00,65.1,26.4,30.36,ESE,112,0.0,0.0,23,0.00,,,0.00,VWS V14.01,2013-05-24 19:11:00,
2013-05-24 14:16:00,65.3,26.6,30.36,SSE,158,0.0,0.0,23,0.00,,,0.00,VWS V14.01,2013-05-24 19:16:00,
2013-05-24 14:21:00,65.7,26.9,30.33,SSW,202,0.0,0.0,23,0.00,,,0.00,VWS V14.01,2013-05-24 19:21:00,
2013-05-24 14:26:00,65.3,23.2,30.33,South,180,0.0,2.7,20,0.00,,,0.00,VWS V14.01,2013-05-24 19:26:00,
2013-05-24 14:31:00,65.3,23.2,30.33,SSW,202,0.0,0.0,20,0.00,,,0.00,VWS V14.01,2013-05-24 19:31:00,
2013-05-24 14:36:00,65.5,23.4,30.33,East,90,0.0,0.0,20,0.00,,,0.00,VWS V14.01,2013-05-24 19:36:00,
2013-05-24 14:41:00,65.5,23.4,30.33,ESE,112,0.0,0.0,20,0.00,,,0.00,VWS V14.01,2013-05-24 19:41:00,
2013-05-24 14:46:00,65.7,23.5,30.33,SSW,202,5.8,5.8,20,0.00,,,0.00,VWS V14.01,2013-05-24 19:46:00,
2013-05-24 14:51:00,65.8,23.7,30.33,SSE,158,0.0,0.0,20,0.00,,,0.00,VWS V14.01,2013-05-24 19:51:00,
2013-05-24 14:56:00,66.0,23.8,30.33,ENE,68,0.0,2.2,20,0.00,,,0.00,VWS V14.01,2013-05-24 19:56:00,
2013-05-24 15:01:00,66.4,24.1,30.33,ESE,112,0.0,0.0,20,0.00,,,0.00,VWS V14.01,2013-05-24 20:01:00,
2013-05-24 15:06:00,66.7,24.4,30.33,East,90,0.0,0.0,20,0.00,,,0.00,VWS V14.01,2013-05-24 20:06:00,
2013-05-24 15:11:00,66.7,24.4,30.33,SE,135,0.0,0.0,20,0.00,,,0.00,VWS V14.01,2013-05-24 20:11:00,
2013-05-24 15:16:00,66.6,24.3,30.33,NNE,22,0.0,0.0,20,0.00,,,0.00,VWS V14.01,2013-05-24 20:16:00,
2013-05-24 15:21:00,66.2,24.0,30.30,ENE,68,0.0,0.0,20,0.00,,,0.00,VWS V14.01,2013-05-24 20:21:00,
2013-05-24 15:26:00,66.2,24.0,30.30,ESE,112,0.0,0.0,20,0.00,,,0.00,VWS V14.01,2013-05-24 20:26:00,
2013-05-24 15:31:00,66.4,20.3,30.30,SSE,158,0.0,0.0,17,0.00,,,0.00,VWS V14.01,2013-05-24 20:31:00,
2013-05-24 15:36:00,66.4,24.1,30.33,SSE,158,0.0,0.0,20,0.00,,,0.00,VWS V14.01,2013-05-24 20:36:00,
2013-05-24 15:41:00,66.4,24.1,30.33,South,180,4.0,4.0,20,0.00,,,0.00,VWS V14.01,2013-05-24 20:41:00,
2013-05-24 15:46:00,66.4,24.1,30.33,SE,135,0.0,0.0,20,0.00,,,0.00,VWS V14.01,2013-05-24 20:46:00,
2013-05-24 15:51:00,66.7,24.4,30.30,ESE,112,0.0,0.0,20,0.00,,,0.00,VWS V14.01,2013-05-24 20:51:00,
2013-05-24 15:56:00,66.6,20.4,30.30,SSE,158,0.0,3.6,17,0.00,,,0.00,VWS V14.01,2013-05-24 20:56:00,
2013-05-24 16:01:00,66.6,20.4,30.30,South,180,4.9,4.9,17,0.00,,,0.00,VWS V14.01,2013-05-24 21:01:00,
2013-05-24 16:06:00,66.4,20.3,30.30,SE,135,0.0,0.0,17,0.00,,,0.00,VWS V14.01,2013-05-24 21:06:00,
2013-05-24 16:11:00,66.6,20.4,30.30,SE,135,0.0,0.0,17,0.00,,,0.00,VWS V14.01,2013-05-24 21:11:00,
2013-05-24 16:16:00,66.7,24.4,30.30,South,180,0.0,0.0,20,0.00,,,0.00,VWS V14.01,2013-05-24 21:16:00,
2013-05-24 16:21:00,66.7,20.6,30.30,SSE,158,5.4,5.4,17,0.00,,,0.00,VWS V14.01,2013-05-24 21:21:00,
2013-05-24 16:26:00,66.9,20.7,30.30,ESE,112,0.0,0.0,17,0.00,,,0.00,VWS V14.01,2013-05-24 21:26:00,
2013-05-24 16:31:00,67.3,24.9,30.30,NE,45,0.0,0.0,20,0.00,,,0.00,VWS V14.01,2013-05-24 21:31:00,
2013-05-24 16:36:00,67.5,25.0,30.27,SSE,158,0.0,0.0,20,0.00,,,0.00,VWS V14.01,2013-05-24 21:36:00,
2013-05-24 16:41:00,67.5,25.0,30.27,SSE,158,0.0,0.0,20,0.00,,,0.00,VWS V14.01,2013-05-24 21:41:00,
2013-05-24 16:46:00,67.6,25.2,30.27,SE,135,0.0,0.0,20,0.00,,,0.00,VWS V14.01,2013-05-24 21:46:00,
2013-05-24 16:51:00,67.5,21.2,30.27,ENE,68,0.0,0.0,17,0.00,,,0.00,VWS V14.01,2013-05-24 21:51:00,
2013-05-24 16:56:00,67.5,25.0,30.27,SSE,158,0.0,0.0,20,0.00,,,0.00,VWS V14.01,2013-05-24 21:56:00,
2013-05-24 17:01:00,67.6,21.3,30.27,SSE,158,0.0,0.0,17,0.00,,,0.00,VWS V14.01,2013-05-24 22:01:00,
2013-05-24 17:06:00,67.6,21.3,30.27,SSE,158,4.0,7.2,17,0.00,,,0.00,VWS V14.01,2013-05-24 22:06:00,
2013-05-24 17:11:00,67.5,21.2,30.27,SSE,158,0.0,0.0,17,0.00,,,0.00,VWS V14.01,2013-05-24 22:11:00,
2013-05-24 17:16:00,67.5,21.2,30.27,SSW,202,6.3,6.3,17,0.00,,,0.00,VWS V14.01,2013-05-24 22:16:00,
2013-05-24 17:21:00,67.6,21.3,30.27,South,180,0.0,0.0,17,0.00,,,0.00,VWS V14.01,2013-05-24 22:21:00,
2013-05-24 17:26:00,67.8,21.5,30.27,SSW,202,0.0,0.0,17,0.00,,,0.00,VWS V14.01,2013-05-24 22:26:00,
2013-05-24 17:31:00,68.0,21.6,30.27,South,180,0.0,0.0,17,0.00,,,0.00,VWS V14.01,2013-05-24 22:31:00,
2013-05-24 17:36:00,68.0,21.6,30.27,South,180,0.0,0.0,17,0.00,,,0.00,VWS V14.01,2013-05-24 22:36:00,
2013-05-24 17:41:00,68.0,21.6,30.27,South,180,0.0,0.0,17,0.00,,,0.00,VWS V14.01,2013-05-24 22:41:00,
2013-05-24 17:46:00,67.8,21.5,30.27,ESE,112,0.0,0.0,17,0.00,,,0.00,VWS V14.01,2013-05-24 22:46:00,
2013-05-24 17:51:00,68.0,21.6,30.27,South,180,0.0,0.0,17,0.00,,,0.00,VWS V14.01,2013-05-24 22:51:00,
2013-05-24 17:56:00,68.2,21.7,30.27,South,180,0.0,0.0,17,0.00,,,0.00,VWS V14.01,2013-05-24 22:56:00,
2013-05-24 18:01:00,68.2,21.7,30.27,South,180,0.0,0.0,17,0.00,,,0.00,VWS V14.01,2013-05-24 23:01:00,
2013-05-24 18:06:00,67.5,21.2,30.27,South,180,2.7,3.1,17,0.00,,,0.00,VWS V14.01,2013-05-24 23:06:00,
2013-05-24 18:11:00,67.3,21.0,30.27,South,180,0.0,0.0,17,0.00,,,0.00,VWS V14.01,2013-05-24 23:11:00,
2013-05-24 18:16:00,67.1,20.9,30.27,South,180,0.0,0.0,17,0.00,,,0.00,VWS V14.01,2013-05-24 23:16:00,
2013-05-24 18:21:00,66.9,20.7,30.24,South,180,0.0,0.0,17,0.00,,,0.00,VWS V14.01,2013-05-24 23:21:00,
2013-05-24 18:26:00,66.7,20.6,30.24,South,180,3.6,4.0,17,0.00,,,0.00,VWS V14.01,2013-05-24 23:26:00,
2013-05-24 18:31:00,66.7,20.6,30.24,South,180,0.0,2.7,17,0.00,,,0.00,VWS V14.01,2013-05-24 23:31:00,
2013-05-24 18:36:00,66.6,20.4,30.24,South,180,3.6,5.4,17,0.00,,,0.00,VWS V14.01,2013-05-24 23:36:00,
2013-05-24 18:41:00,66.6,20.4,30.24,South,180,0.0,0.0,17,0.00,,,0.00,VWS V14.01,2013-05-24 23:41:00,
2013-05-24 18:46:00,66.4,20.3,30.24,South,180,0.0,0.0,17,0.00,,,0.00,VWS V14.01,2013-05-24 23:46:00,
2013-05-24 18:51:00,66.4,20.3,30.24,South,180,0.0,0.0,17,0.00,,,0.00,VWS V14.01,2013-05-24 23:51:00,
2013-05-24 18:56:00,66.2,20.1,30.24,South,180,0.0,0.0,17,0.00,,,0.00,VWS V14.01,2013-05-24 23:56:00,
2013-05-24 19:01:00,66.2,20.1,30.24,South,180,0.0,0.0,17,0.00,,,0.00,VWS V14.01,2013-05-25 00:01:00,
2013-05-24 19:06:00,66.0,21.3,30.24,South,180,0.0,0.0,18,0.00,,,0.00,VWS V14.01,2013-05-25 00:06:00,
2013-05-24 19:11:00,65.8,21.2,30.24,South,180,0.0,0.0,18,0.00,,,0.00,VWS V14.01,2013-05-25 00:11:00,
2013-05-24 19:16:00,65.8,21.2,30.24,South,180,0.0,0.0,18,0.00,,,0.00,VWS V14.01,2013-05-25 00:16:00,
2013-05-24 19:21:00,65.7,23.5,30.24,South,180,0.0,0.0,20,0.00,,,0.00,VWS V14.01,2013-05-25 00:21:00,
2013-05-24 19:26:00,65.7,23.5,30.24,South,180,0.0,0.0,20,0.00,,,0.00,VWS V14.01,2013-05-25 00:26:00,
2013-05-24 19:31:00,65.5,23.4,30.24,South,180,0.0,0.0,20,0.00,,,0.00,VWS V14.01,2013-05-25 00:31:00,
2013-05-24 19:36:00,65.1,23.1,30.24,South,180,0.0,0.0,20,0.00,,,0.00,VWS V14.01,2013-05-25 00:36:00,
2013-05-24 19:41:00,64.9,22.9,30.24,South,180,0.0,0.0,20,0.00,,,0.00,VWS V14.01,2013-05-25 00:41:00,
2013-05-24 19:46:00,64.9,22.9,30.24,South,180,0.0,0.0,20,0.00,,,0.00,VWS V14.01,2013-05-25 00:46:00,
2013-05-24 19:51:00,64.4,22.5,30.24,South,180,0.0,0.0,20,0.00,,,0.00,VWS V14.01,2013-05-25 00:51:00,
2013-05-24 19:56:00,64.2,25.7,30.24,South,180,0.0,0.0,23,0.00,,,0.00,VWS V14.01,2013-05-25 00:56:00,
2013-05-24 20:01:00,64.0,25.5,30.24,South,180,0.0,0.0,23,0.00,,,0.00,VWS V14.01,2013-05-25 01:01:00,
2013-05-24 20:06:00,63.5,25.1,30.24,South,180,0.0,0.0,23,0.00,,,0.00,VWS V14.01,2013-05-25 01:06:00,
2013-05-24 20:11:00,63.3,24.9,30.24,South,180,0.0,0.0,23,0.00,,,0.00,VWS V14.01,2013-05-25 01:11:00,
2013-05-24 20:16:00,63.0,24.6,30.24,South,180,0.0,0.0,23,0.00,,,0.00,VWS V14.01,2013-05-25 01:16:00,
2013-05-24 20:21:00,62.6,24.3,30.24,South,180,0.0,0.0,23,0.00,,,0.00,VWS V14.01,2013-05-25 01:21:00,
2013-05-24 20:26:00,62.1,24.9,30.27,South,180,0.0,0.0,24,0.00,,,0.00,VWS V14.01,2013-05-25 01:26:00,
2013-05-24 20:31:00,61.7,24.6,30.27,South,180,0.0,0.0,24,0.00,,,0.00,VWS V14.01,2013-05-25 01:31:00,
2013-05-24 20:35:00,61.2,25.1,30.24,South,180,0.0,0.0,25,0.00,,,0.00,VWS V14.01,2013-05-25 01:35:00,
2013-05-24 20:40:00,60.8,24.8,30.24,South,180,0.0,0.0,25,0.00,,,0.00,VWS V14.01,2013-05-25 01:40:00,
2013-05-24 20:45:00,60.3,24.3,30.24,South,180,0.0,0.0,25,0.00,,,0.00,VWS V14.01,2013-05-25 01:45:00,
2013-05-24 20:50:00,60.1,25.1,30.24,South,180,0.0,0.0,26,0.00,,,0.00,VWS V14.01,2013-05-25 01:50:00,
2013-05-24 20:55:00,59.7,25.7,30.24,South,180,0.0,0.0,27,0.00,,,0.00,VWS V14.01,2013-05-25 01:55:00,
2013-05-24 21:00:00,59.4,24.5,30.24,South,180,0.0,0.0,26,0.00,,,0.00,VWS V14.01,2013-05-25 02:00:00,
2013-05-24 21:05:00,59.2,25.2,30.24,South,180,0.0,0.0,27,0.00,,,0.00,VWS V14.01,2013-05-25 02:05:00,
2013-05-24 21:10:00,59.0,25.1,30.24,South,180,0.0,0.0,27,0.00,,,0.00,VWS V14.01,2013-05-25 02:10:00,
2013-05-24 21:15:00,58.8,25.8,30.24,South,180,0.0,0.0,28,0.00,,,0.00,VWS V14.01,2013-05-25 02:15:00,
2013-05-24 21:20:00,58.6,25.6,30.24,South,180,0.0,0.0,28,0.00,,,0.00,VWS V14.01,2013-05-25 02:20:00,
2013-05-24 21:25:00,58.6,26.5,30.24,South,180,0.0,0.0,29,0.00,,,0.00,VWS V14.01,2013-05-25 02:25:00,
2013-05-24 21:30:00,58.5,27.2,30.24,South,180,0.0,0.0,30,0.00,,,0.00,VWS V14.01,2013-05-25 02:30:00,
2013-05-24 23:33:00,58.3,27.0,30.24,South,180,0.0,0.0,30,0.00,,,0.00,VWS V14.01,2013-05-25 04:33:00,
2013-05-24 23:38:00,58.8,24.9,30.27,ENE,68,0.0,0.0,27,0.00,,,0.00,VWS V14.01,2013-05-25 04:38:00,
2013-05-24 23:43:00,58.8,24.9,30.27,ENE,68,0.0,0.0,27,0.00,,,0.00,VWS V14.01,2013-05-25 04:43:00,
2013-05-24 23:48:00,58.8,24.9,30.27,ENE,68,0.0,0.0,27,0.00,,,0.00,VWS V14.01,2013-05-25 04:48:00,
2013-05-24 23:53:00,58.8,24.9,30.27,ENE,68,0.0,0.0,27,0.00,,,0.00,VWS V14.01,2013-05-25 04:53:00,
2013-05-24 23:58:00,58.8,24.9,30.27,ENE,68,0.0,0.0,27,0.00,,,0.00,VWS V14.01,2013-05-25 04:58:00,